Wind_Speed
91 90 89 88 87 86 85 84 84 83 82 81 80 79 80 80 81 81 81 80 79 78 77 78 78 77 77 76 75 75 74 74 75 76 76 76 77 77 78 78 78 78 78 77 76 76 75 75 75 76 76 77
93 93 92 91 90 89 88 87 86 86 85 84 83 82 83 84 85 85 85 83 82 80 80 80 81 80 80 80 79 79 78 77 76 77 78 79 79 80 81 81 82 82 82 81 80 80 79 79 79 79 79 79
95 95 95 94 94 93 92 91 89 88 87 87 87 86 86 86 86 87 86 86 84 83 83 83 84 84 84 83 83 83 82 81 80 79 79 80 81 82 83 84 85 85 85 84 84 84 83 82 82 81 82 82
96 96 97 97 97 97 96 95 93 92 90 90 90 89 89 89 88 88 87 87 86 85 85 86 87 87 87 87 86 86 85 84 84 83 82 82 83 84 85 86 87 87 88 88 88 87 86 85 84 84 84 85
97 97 98 98 99 99 99 98 97 95 94 93 92 92 92 92 92 91 90 89 88 87 86 87 88 89 89 89 89 89 88 87 86 85 84 84 85 86 87 88 88 89 90 90 90 90 89 88 87 87 87 87
99 98 98 99 100 100 100 100 100 99 98 96 95 95 94 95 95 94 94 93 91 90 90 89 90 91 92 92 92 92 91 91 89 88 87 86 87 88 89 89 90 90 91 92 92 92 92 92 91 90 90 90
100 100 99 99 100 100 101 101 101 101 101 99 98 98 98 98 98 98 98 97 96 95 94 93 93 93 94 94 94 94 94 93 92 91 90 89 89 90 90 91 91 91 92 93 94 94 95 95 94 93 93 93
101 101 102 102 101 101 101 102 102 102 102 102 101 101 101 101 101 101 101 100 99 98 97 96 95 94 93 93 94 94 95 94 94 93 92 91 90 91 92 92 92 92 93 94 95 95 96 96 96 96 96 96
102 102 102 103 103 104 104 104 104 104 103 103 103 104 103 103 103 103 103 102 102 101 100 99 97 96 94 93 93 93 93 93 93 93 93 92 91 91 92 92 91 92 93 94 95 96 97 97 97 98 98 98
102 101 102 103 104 104 105 106 106 106 106 106 105 105 105 105 105 105 104 104 104 103 103 102 101 99 97 96 94 94 93 93 93 93 93 92 92 92 93 92 92 93 94 95 95 96 97 98 98 99 100 100
103 103 105 106 107 107 107 107 107 107 107 108 107 107 107 106 106 106 105 105 104 104 105 104 104 102 101 99 98 97 96 95 95 94 94 94 94 95 95 95 95 95 96 96 97 97 98 99 100 101 102 104
106 106 109 110 111 111 111 111 110 110 110 109 109 109 108 108 107 107 106 106 106 106 105 105 105 104 103 102 101 100 99 99 99 98 97 97 98 98 98 98 98 98 98 98 99 100 101 102 103 105 106 108
106 106 107 108 110 111 112 112 112 113 113 112 112 112 111 110 109 108 108 108 107 107 107 106 106 105 104 104 103 102 102 102 102 102 101 101 102 101 101 101 101 101 101 101 102 104 105 107 108 110 111 111
109 109 106 105 106 108 109 110 110 111 112 112 112 112 112 112 111 110 110 110 109 109 108 107 106 106 105 105 104 104 104 104 104 104 104 105 105 105 105 105 105 105 105 105 106 108 109 111 112 113 114 114
110 111 110 109 107 106 106 107 107 108 110 111 111 112 112 112 112 111 111 111 111 110 109 109 108 107 107 107 107 106 106 106 106 106 107 107 108 108 109 109 109 109 109 110 111 112 113 114 115 115 115 115
112 111 111 110 110 109 109 108 107 108 109 110 110 111 111 111 111 111 111 111 111 111 110 110 109 109 108 109 109 109 108 108 108 109 109 109 109 110 111 111 111 111 112 113 114 114 114 115 116 116 115 115
117 115 113 112 111 111 112 112 112 112 112 111 110 109 109 110 110 111 111 112 112 112 111 110 110 109 109 109 109 109 109 109 110 110 110 111 111 111 112 112 112 112 113 114 114 115 115 115 115 115 115 116
121 121 119 118 116 115 115 115 115 116 118 117 115 112 111 111 111 111 111 113 114 113 112 111 111 110 110 110 110 110 111 111 111 111 111 111 112 112 113 113 112 112 113 114 114 115 115 115 115 116 117 117
124 124 124 124 122 121 121 120 119 119 121 122 122 120 118 117 116 114 113 114 115 114 113 112 112 112 112 112 113 113 113 113 113 113 113 114 114 114 114 114 114 114 114 115 115 116 116 116 116 117 117 117
127 126 127 127 126 125 126 126 124 123 122 123 124 124 123 122 121 120 119 119 118 117 115 114 114 113 114 114 115 116 116 117 116 116 116 116 116 117 117 117 117 116 116 117 117 117 117 117 117 118 118 119
130 128 128 128 128 129 130 130 128 126 125 125 127 128 127 125 123 122 123 124 124 123 121 120 120 119 118 118 118 119 119 118 118 117 117 117 118 119 119 119 119 118 119 119 120 119 119 119 120 120 121 122
132 131 130 128 128 130 131 131 131 129 128 129 130 131 131 129 127 124 124 126 127 127 126 126 125 125 124 123 123 123 123 122 121 120 120 120 121 121 122 122 121 120 120 121 122 122 122 122 122 123 124 125
133 133 132 131 131 131 131 131 131 131 132 133 133 134 134 133 131 129 129 129 130 131 130 129 128 128 128 128 128 129 129 128 127 126 126 126 126 126 126 125 125 124 124 125 125 126 125 125 125 126 128 129
133 133 134 134 133 133 132 132 131 132 133 135 136 136 136 135 134 134 134 134 134 135 135 134 132 131 131 132 133 134 134 133 132 132 132 132 132 131 130 129 129 129 129 130 130 131 131 132 132 133 134 135
131 132 134 134 134 134 134 133 132 132 134 136 137 137 137 136 137 137 138 138 138 138 138 137 136 134 135 136 137 138 138 138 137 136 136 136 136 135 134 134 134 134 134 134 134 135 136 137 137 138 139 139
130 131 133 134 134 135 135 135 134 133 135 136 137 137 137 137 138 139 140 141 141 141 142 141 140 139 139 140 141 141 142 142 141 141 140 140 139 138 137 136 136 136 136 137 137 138 139 139 140 141 141 141
130 131 132 133 133 134 135 135 134 134 136 136 135 135 136 137 138 139 140 141 141 142 142 143 143 143 145 145 145 145 146 146 146 146 146 146 145 144 143 142 141 140 139 139 140 140 140 141 141 142 142 142
132 133 134 134 133 134 134 135 135 135 136 135 134 134 134 136 137 137 139 140 140 140 141 141 142 144 145 146 146 146 146 147 148 149 149 150 150 149 148 147 146 144 144 144 143 143 142 142 143 143 143 144
131 133 134 135 135 135 135 135 136 136 136 136 135 135 135 135 135 136 138 139 140 139 139 138 139 139 141 142 143 143 143 144 145 147 148 148 149 150 150 149 148 147 147 147 146 145 144 144 144 144 145 146
131 132 134 135 136 136 136 136 137 137 137 137 137 137 137 136 136 136 138 139 138 138 137 136 136 135 136 138 139 140 140 141 143 144 145 146 147 148 148 149 148 149 150 150 149 148 147 147 146 146 146 146
129 131 133 135 136 136 137 138 138 138 138 138 138 139 139 139 138 138 139 139 138 137 136 135 135 135 135 137 138 138 139 140 142 144 145 146 146 146 146 146 147 149 151 151 151 151 151 150 150 150 149 149
Wind_Direction
245 245 245 245 245 246 247 247 248 248 249 250 250 251 252 252 253 253 254 256 257 258 259 259 260 261 262 262 263 263 264 264 264 264 265 266 267 267 268 269 270 271 272 273 274 276 277 277 278 279 279 280
246 246 247 247 247 247 247 247 247 248 249 249 250 251 252 253 253 254 255 256 257 257 258 258 260 261 262 262 262 263 263 264 265 265 265 266 267 268 268 269 269 271 272 273 274 275 276 277 277 278 278 279
246 247 247 248 248 248 248 248 248 248 249 249 250 251 252 253 254 254 255 256 257 257 258 258 259 260 261 262 262 263 263 263 264 265 265 265 266 267 268 268 269 270 271 272 273 274 275 276 276 277 278 278
247 248 248 248 249 249 249 249 249 249 249 249 250 251 252 253 254 255 256 257 257 258 258 259 260 261 261 262 262 263 263 263 263 264 264 265 265 266 267 267 268 269 270 271 272 273 274 275 276 276 277 277
247 247 248 249 249 249 250 250 250 250 250 250 250 251 252 253 254 255 256 257 257 258 259 259 260 261 262 262 263 263 263 263 263 264 264 264 265 265 266 266 267 268 268 270 271 272 274 275 275 276 276 276
246 247 248 249 249 250 250 251 251 251 250 250 250 251 252 253 254 255 256 257 258 258 258 259 260 261 262 263 263 264 264 264 264 264 265 265 265 265 265 266 266 267 268 269 270 271 272 274 274 275 275 276
247 248 248 248 249 249 250 250 251 251 251 251 251 251 253 254 255 256 257 257 258 258 258 258 259 260 261 262 263 263 264 264 265 265 265 265 265 265 265 265 266 267 268 269 269 270 271 273 274 274 275 276
249 249 249 249 249 249 250 250 251 251 251 251 251 252 252 254 255 256 257 258 258 258 258 258 259 260 261 262 262 263 263 264 264 265 265 265 265 265 265 265 266 267 267 268 268 269 270 271 272 273 274 275
251 251 251 251 250 250 250 251 251 251 252 252 252 252 253 254 255 256 257 258 259 259 259 259 259 259 260 261 261 262 263 263 264 264 264 264 264 264 264 265 266 267 267 268 268 268 269 270 270 271 273 274
252 253 253 253 252 252 252 252 252 253 253 253 254 254 254 255 256 257 258 258 259 259 260 260 260 260 260 261 261 262 263 263 264 264 264 264 264 264 265 266 267 267 267 268 268 268 269 269 270 271 273 274
252 253 254 254 254 254 254 254 255 255 255 255 256 256 256 257 257 258 259 260 260 260 261 261 261 262 262 262 262 262 263 263 264 264 264 264 264 265 266 267 267 268 268 268 269 269 269 270 270 272 273 274
252 253 254 255 255 256 256 256 256 257 257 258 258 258 258 258 259 260 260 261 261 262 262 263 263 263 263 264 264 264 265 265 265 265 265 265 266 266 267 267 268 268 268 269 269 269 270 270 271 272 273 274
251 252 253 254 255 256 257 257 257 258 258 259 259 259 260 260 260 260 261 261 262 262 263 263 264 264 265 265 265 266 266 266 266 266 266 267 267 267 268 268 268 269 269 269 269 269 270 271 271 272 273 273
251 251 251 252 253 255 256 257 258 259 259 259 260 260 260 260 260 261 261 262 262 263 263 263 264 265 265 265 266 266 266 266 267 267 267 267 267 268 268 268 269 269 269 269 269 269 270 271 271 272 273 273
250 251 251 250 251 253 255 257 258 259 260 260 260 260 261 261 261 261 262 262 263 263 263 264 264 265 265 266 266 266 266 266 267 267 267 267 267 267 268 268 268 268 269 269 269 269 270 270 271 272 272 273
247 249 250 251 251 251 253 254 255 256 257 258 259 260 261 262 262 262 263 263 263 264 264 264 265 265 266 266 266 267 267 267 267 267 267 267 267 267 267 267 268 268 268 268 269 269 270 270 271 271 272 272
246 247 248 249 250 251 252 252 253 254 255 256 257 259 260 261 262 262 263 263 264 264 264 264 265 265 266 266 266 267 267 267 267 267 267 267 267 267 267 267 268 268 268 268 269 269 270 271 271 272 272 272
245 247 247 248 249 250 251 252 252 253 254 255 256 257 258 260 261 261 262 263 263 264 264 265 265 265 265 265 265 266 266 266 266 266 267 267 267 267 267 268 268 268 268 269 269 270 270 271 272 272 273 273
246 246 247 248 249 250 251 252 252 253 254 255 256 256 256 257 258 259 260 261 262 263 264 264 264 264 264 265 265 265 265 265 266 266 267 267 267 268 268 268 268 269 269 270 270 271 271 271 272 272 273 273
247 247 248 248 249 250 251 252 253 253 254 256 257 257 257 256 257 258 259 259 261 262 262 263 263 263 263 264 264 265 265 265 265 266 266 267 267 268 268 269 269 270 270 270 271 271 271 271 271 272 272 272
247 247 248 249 249 250 251 252 253 253 254 255 256 257 257 257 257 257 258 258 259 259 260 261 261 261 262 262 263 263 263 264 264 265 265 266 266 267 267 268 269 269 270 270 270 270 270 271 271 271 272 272
246 247 248 248 249 249 250 251 252 253 254 255 256 256 257 257 258 257 257 258 258 258 258 259 259 260 260 261 262 262 262 263 263 264 265 265 265 266 266 267 268 268 269 269 269 269 269 270 270 271 271 271
245 246 247 248 248 249 250 250 251 252 253 254 255 256 257 257 258 258 257 257 258 258 258 259 259 259 260 261 261 261 262 262 263 264 264 265 265 265 265 266 267 267 268 268 268 269 269 270 270 271 271 272
244 245 246 247 248 248 249 250 250 251 251 253 254 255 256 257 257 258 258 258 258 258 259 259 259 260 261 261 262 262 262 263 263 264 264 265 265 265 266 266 266 266 267 267 268 269 270 270 271 271 272 272
244 245 245 246 247 248 248 249 249 250 251 251 252 253 255 256 257 257 258 258 258 259 259 260 260 260 261 261 262 263 263 264 264 264 264 264 265 265 266 266 267 267 267 267 268 268 269 269 270 271 271 271
244 244 245 246 247 248 248 249 249 249 250 251 252 253 254 255 256 257 258 259 259 260 260 261 261 261 261 261 261 262 263 264 265 265 265 265 265 265 265 265 266 266 267 267 267 268 268 269 269 270 270 270
244 244 245 246 247 248 249 249 249 250 250 251 252 253 254 255 256 257 258 259 259 260 261 261 262 262 262 262 262 263 263 264 265 265 266 266 266 266 265 265 265 266 266 267 267 268 268 268 269 270 270 271
245 245 245 246 246 247 248 249 250 250 251 251 252 253 254 255 255 256 257 258 259 260 261 261 262 262 263 263 264 264 265 265 265 265 265 265 266 266 266 266 266 266 266 266 267 267 268 268 269 270 271 271
245 246 246 246 246 247 248 249 249 250 251 251 252 253 253 254 255 256 257 257 258 259 260 261 262 263 264 265 265 265 266 266 266 267 267 267 267 267 267 267 267 267 267 267 267 267 268 268 269 270 271 272
244 245 246 247 247 247 247 248 249 250 251 251 252 252 253 254 254 255 256 257 258 259 260 261 262 263 264 265 265 266 266 266 267 267 268 268 269 269 269 270 270 269 269 269 269 269 269 270 270 270 271 272
244 245 246 247 247 248 248 248 249 250 250 251 252 252 253 254 255 255 257 258 258 259 260 260 261 262 263 264 265 266 266 266 266 267 268 269 269 270 271 272 272 272 272 272 272 272 272 272 272 272 272 272
Height
10830 10832 10833 10835 10837 10839 10841 10843 10844 10845 10848 10849 10850 10851 10850 10849 10849 10848 10850 10852 10854 10857 10859 10858 10857 10859 10861 10862 10862 10861 10862 10863 10863 10864 10864 10863 10863 10863 10863 10862 10862 10862 10863 10863 10864 10864 10864 10864 10863 10862 10861 10859
10824 10826 10828 10830 10832 10832 10833 10835 10837 10839 10841 10843 10844 10844 10843 10842 10841 10841 10843 10846 10849 10852 10853 10853 10852 10852 10853 10855 10856 10855 10856 10856 10858 10858 10858 10858 10858 10858 10857 10857 10856 10856 10857 10857 10857 10858 10858 10857 10856 10855 10854 10853
10818 10820 10822 10823 10825 10825 10826 10828 10830 10832 10835 10836 10837 10837 10836 10834 10834 10835 10837 10840 10843 10845 10847 10847 10846 10846 10846 10848 10849 10849 10850 10850 10851 10852 10852 10852 10852 10852 10851 10850 10850 10850 10850 10850 10850 10850 10850 10850 10849 10849 10847 10846
10811 10813 10814 10816 10817 10818 10819 10821 10823 10825 10827 10829 10830 10830 10828 10826 10826 10828 10830 10833 10836 10839 10841 10841 10840 10840 10840 10841 10842 10842 10843 10844 10845 10846 10846 10845 10845 10845 10844 10844 10844 10844 10843 10843 10843 10843 10843 10843 10842 10842 10840 10839
10803 10804 10806 10807 10808 10810 10812 10814 10815 10817 10819 10821 10822 10822 10821 10819 10819 10821 10823 10825 10829 10832 10834 10834 10833 10833 10833 10834 10834 10836 10836 10837 10838 10839 10839 10839 10838 10838 10837 10837 10837 10837 10836 10836 10836 10835 10835 10835 10834 10834 10833 10832
10795 10796 10798 10798 10800 10802 10804 10805 10807 10808 10810 10813 10815 10814 10813 10812 10813 10814 10815 10818 10821 10824 10826 10827 10826 10826 10826 10827 10828 10828 10829 10829 10831 10832 10832 10832 10831 10831 10830 10830 10830 10829 10829 10829 10829 10828 10827 10827 10826 10825 10824 10824
10786 10788 10790 10790 10791 10794 10795 10796 10797 10799 10801 10804 10806 10806 10806 10805 10805 10806 10808 10810 10813 10815 10817 10819 10819 10819 10819 10820 10821 10821 10821 10822 10823 10824 10825 10825 10824 10823 10823 10822 10822 10822 10822 10822 10821 10820 10819 10818 10818 10817 10816 10815
10778 10779 10780 10781 10783 10784 10786 10786 10787 10790 10792 10794 10796 10798 10798 10798 10798 10799 10800 10802 10805 10806 10808 10810 10811 10811 10812 10814 10814 10814 10814 10814 10816 10816 10817 10817 10817 10816 10814 10814 10815 10815 10815 10814 10813 10812 10811 10810 10809 10808 10807 10806
10768 10770 10771 10771 10772 10774 10775 10776 10777 10780 10783 10784 10786 10788 10790 10791 10791 10792 10793 10795 10797 10798 10799 10801 10802 10804 10806 10807 10807 10806 10807 10807 10808 10808 10809 10809 10809 10807 10806 10806 10807 10807 10806 10805 10805 10804 10803 10802 10800 10799 10798 10797
10759 10761 10761 10760 10760 10762 10764 10766 10769 10772 10774 10775 10777 10779 10781 10783 10784 10785 10786 10788 10789 10789 10790 10791 10794 10796 10798 10798 10799 10799 10799 10799 10800 10800 10801 10801 10801 10799 10797 10798 10799 10798 10798 10797 10796 10795 10794 10792 10791 10790 10789 10788
10751 10751 10750 10749 10750 10753 10755 10758 10761 10763 10764 10766 10768 10770 10773 10774 10775 10776 10778 10779 10780 10780 10781 10782 10785 10787 10788 10790 10791 10791 10792 10792 10792 10792 10792 10793 10792 10790 10789 10790 10790 10790 10789 10788 10787 10786 10784 10783 10782 10780 10779 10779
10744 10742 10741 10742 10744 10746 10748 10750 10753 10754 10755 10757 10759 10760 10763 10765 10767 10768 10769 10769 10770 10771 10772 10773 10775 10777 10779 10781 10782 10783 10783 10783 10783 10783 10783 10783 10782 10781 10780 10780 10780 10780 10780 10779 10778 10776 10774 10773 10772 10771 10770 10769
10737 10734 10733 10734 10736 10737 10739 10741 10743 10744 10745 10747 10749 10750 10752 10755 10757 10758 10759 10759 10760 10761 10762 10764 10766 10768 10769 10771 10772 10773 10773 10773 10773 10773 10773 10773 10772 10771 10771 10771 10770 10771 10771 10770 10768 10766 10764 10763 10762 10760 10759 10759
10728 10727 10726 10726 10727 10728 10730 10731 10733 10734 10734 10736 10739 10740 10741 10744 10746 10748 10749 10749 10749 10751 10752 10755 10757 10758 10760 10761 10762 10763 10763 10763 10763 10763 10763 10762 10762 10761 10761 10761 10761 10761 10761 10760 10758 10756 10754 10753 10751 10750 10749 10748
10717 10718 10719 10719 10720 10721 10723 10724 10724 10724 10724 10725 10727 10729 10731 10733 10735 10738 10738 10738 10738 10740 10742 10745 10747 10749 10750 10751 10752 10753 10753 10754 10753 10752 10752 10752 10752 10752 10751 10751 10751 10751 10751 10750 10748 10746 10745 10743 10742 10740 10739 10738
10708 10708 10709 10711 10712 10714 10715 10716 10716 10715 10713 10713 10716 10719 10721 10723 10725 10727 10728 10727 10728 10729 10732 10735 10737 10739 10740 10740 10740 10742 10743 10743 10743 10742 10742 10742 10742 10741 10741 10741 10741 10741 10741 10739 10737 10736 10735 10734 10732 10730 10729 10729
10698 10699 10700 10702 10704 10705 10705 10706 10707 10705 10702 10703 10707 10711 10711 10713 10716 10717 10717 10716 10716 10718 10722 10725 10727 10729 10730 10730 10729 10730 10731 10732 10732 10731 10731 10730 10731 10730 10730 10730 10731 10731 10730 10728 10726 10726 10725 10724 10722 10721 10720 10719
10689 10689 10691 10692 10694 10696 10695 10695 10697 10696 10693 10694 10698 10702 10702 10703 10706 10707 10707 10705 10704 10708 10713 10715 10717 10719 10719 10719 10719 10719 10720 10720 10721 10721 10720 10720 10720 10719 10718 10719 10720 10720 10719 10717 10716 10715 10715 10714 10713 10712 10710 10708
10681 10681 10681 10682 10685 10687 10685 10684 10686 10687 10685 10684 10687 10691 10693 10694 10697 10698 10698 10695 10693 10696 10702 10704 10705 10707 10707 10708 10708 10708 10708 10708 10709 10710 10710 10709 10709 10708 10707 10708 10709 10709 10708 10706 10706 10705 10705 10704 10703 10701 10700 10698
10671 10672 10672 10673 10675 10677 10675 10673 10675 10678 10678 10677 10676 10677 10681 10684 10688 10689 10688 10686 10685 10687 10691 10692 10692 10694 10695 10695 10695 10694 10694 10695 10697 10698 10699 10699 10698 10697 10696 10696 10697 10698 10697 10696 10695 10695 10694 10693 10692 10691 10690 10688
10660 10661 10662 10663 10665 10665 10663 10663 10665 10669 10671 10670 10666 10662 10665 10671 10676 10679 10678 10675 10675 10677 10680 10679 10679 10681 10683 10684 10683 10681 10681 10683 10684 10686 10687 10687 10686 10686 10685 10685 10686 10687 10686 10685 10683 10683 10683 10682 10682 10681 10679 10677
10648 10650 10652 10654 10654 10652 10652 10654 10657 10661 10661 10658 10654 10651 10652 10657 10664 10667 10666 10663 10662 10663 10666 10667 10667 10669 10671 10672 10672 10670 10669 10671 10673 10674 10675 10675 10674 10674 10675 10675 10676 10677 10676 10673 10671 10671 10671 10671 10671 10670 10668 10666
10637 10638 10640 10641 10641 10641 10641 10644 10649 10651 10649 10644 10642 10641 10641 10646 10651 10653 10653 10651 10649 10649 10650 10653 10655 10657 10658 10658 10657 10658 10658 10659 10662 10663 10663 10662 10662 10663 10664 10665 10667 10667 10666 10663 10661 10660 10660 10660 10659 10658 10656 10654
10626 10626 10627 10628 10629 10630 10631 10634 10637 10639 10637 10634 10632 10631 10631 10635 10638 10638 10638 10636 10636 10636 10636 10639 10644 10646 10646 10644 10641 10641 10643 10646 10650 10651 10651 10650 10649 10650 10652 10654 10655 10655 10654 10653 10652 10651 10649 10648 10647 10646 10645 10642
10614 10614 10614 10615 10617 10618 10620 10622 10626 10627 10626 10621 10619 10620 10622 10623 10624 10624 10623 10622 10624 10625 10624 10627 10632 10634 10634 10631 10627 10625 10625 10628 10632 10635 10637 10638 10638 10639 10641 10642 10642 10641 10642 10642 10641 10639 10637 10636 10635 10633 10631 10629
10603 10602 10603 10604 10605 10606 10607 10610 10614 10615 10611 10608 10609 10611 10614 10614 10612 10611 10610 10610 10612 10613 10613 10615 10618 10620 10618 10617 10615 10614 10613 10613 10615 10617 10619 10622 10623 10626 10629 10629 10629 10628 10628 10628 10626 10625 10624 10623 10621 10618 10617 10615
10589 10590 10591 10592 10593 10594 10595 10597 10601 10602 10598 10598 10602 10604 10604 10603 10601 10601 10599 10599 10600 10601 10601 10603 10604 10603 10602 10601 10602 10604 10603 10602 10601 10600 10601 10602 10604 10608 10611 10613 10615 10617 10617 10615 10613 10612 10611 10609 10606 10605 10603 10601
10575 10577 10578 10580 10582 10583 10584 10585 10588 10588 10587 10589 10593 10594 10594 10592 10591 10591 10589 10587 10589 10589 10590 10590 10591 10590 10588 10587 10589 10591 10590 10588 10586 10585 10584 10584 10586 10589 10592 10596 10600 10603 10603 10601 10599 10599 10598 10596 10594 10592 10590 10587
10562 10562 10564 10567 10570 10571 10572 10573 10574 10576 10576 10579 10581 10581 10582 10582 10581 10580 10577 10575 10577 10579 10580 10579 10579 10578 10576 10573 10575 10577 10576 10573 10570 10569 10569 10568 10568 10570 10574 10579 10583 10585 10585 10584 10584 10585 10585 10584 10582 10580 10577 10573
10549 10550 10550 10553 10556 10559 10560 10561 10562 10563 10565 10566 10567 10568 10569 10570 10570 10568 10565 10564 10567 10569 10571 10570 10569 10567 10564 10560 10560 10563 10563 10560 10557 10555 10554 10554 10553 10554 10557 10560 10563 10564 10564 10565 10566 10569 10570 10569 10569 10567 10564 10560
10536 10538 10539 10540 10542 10544 10546 10548 10549 10550 10552 10553 10554 10555 10556 10557 10558 10557 10555 10554 10556 10559 10560 10559 10557 10556 10553 10548 10546 10548 10548 10546 10544 10544 10542 10541 10542 10543 10544 10544 10543 10542 10542 10544 10546 10548 10550 10550 10550 10550 10548 10545